[[{"header":{"parameterUnit":"m.s-1","parameterCategory":1,"la1":30.2991,"la2":30.254,"lo1":-89.0895,"lo2":-89.0444,"dy":0.0017,"dx":0.0017,"nx":28,"ny":28,"refTime":"2025-07-20T21:00:00:Z","depth":0,"parameterNumber":2,"parameterNumberName":"U-component_of_WINDS"},"data":[0,0,0,0,0,0,0,0,0,0,0,0,0,0,0,0,0,0,0,0,0,0,0,0,0,0,0,0,0,0,0,0,0,0,0,0,0,0,0,0,0,0,0,0,0,0,0,0,0,0,0,0,0,0,0,0,0,0,3.9073,3.9075,0,3.923,3.9231,3.9233,3.9202,3.92,3.9197,3.9194,3.9355,3.9361,3.9368,0,0,0,0,0,0,0,0,0,0,0,0,0,3.8746,3.8752,3.9073,3.9075,3.9077,3.9229,3.9231,3.9234,3.9203,3.9199,3.9196,3.9193,3.9352,3.9361,3.9369,0,0,0,0,0,0,0,0,0,0,0,0,0,3.8894,3.8754,3.9072,3.908,3.9082,3.9229,3.9231,3.9234,3.9204,3.9199,3.9195,3.9191,3.935,3.936,3.937,3.9519,0,0,3.9402,3.9406,0,0,0,0,0,0,0,0,3.8886,3.8906,3.9077,3.9079,3.9082,3.9192,3.9175,3.933,3.9205,3.9158,3.9194,3.9189,3.9304,3.9318,3.9357,3.9527,3.9534,3.9403,3.9409,3.9414,3.9416,0,0,0,0,0,0,0,3.8876,3.8899,3.9135,3.9079,3.9083,3.9075,3.9091,3.9204,3.9253,3.9161,3.9159,3.9178,3.9305,3.9347,3.936,3.9536,3.9402,3.9412,3.9418,3.9422,3.9836,3.984,0,0,0,0,0,0,3.8863,3.8891,3.913,3.9139,3.8971,3.9084,3.9103,3.9161,3.9251,3.9261,3.9182,3.9176,3.9331,3.9348,3.9366,3.9545,3.9413,3.9423,3.9429,3.9831,3.9837,3.9842,0,0,0,0,0,0,3.8856,3.8884,3.9123,3.9015,3.9045,3.9095,3.9161,3.9166,3.9208,3.9267,3.9275,3.9216,3.9328,3.9351,3.9481,3.9551,3.9428,3.9437,3.9825,3.9833,3.9839,3.9907,0,0,0,0,0,0,3.8847,3.8882,3.894,3.9016,3.9051,3.9237,3.9165,3.9173,3.9226,3.9221,3.9301,3.931,3.9327,3.9466,3.9492,3.9563,3.9445,3.9819,3.9829,3.9837,3.9898,3.9915,3.993,0,0,0,0,0,3.8835,3.8953,3.8943,3.8972,3.9123,3.9241,3.926,3.9277,3.9232,3.929,3.9328,3.9308,3.9539,3.9479,3.9508,3.9583,3.9815,3.9826,3.9836,3.9891,3.9912,3.9929,0,0,0,0,0,0,3.8883,3.8963,3.8953,3.9098,3.9163,3.9235,3.9309,3.9298,3.9376,3.9368,3.9385,3.9404,3.9535,3.9573,3.9505,3.9732,3.9671,3.9688,3.9703,3.9723,3.9738,3.9726,3.9454,0,0,0,0,0,3.891,3.8999,3.9064,3.9186,3.9219,3.9259,3.931,3.9317,3.9385,3.9412,3.9459,3.9525,3.9613,3.967,3.9754,3.9904,3.9921,3.997,3.9986,3.9998,4.0012,4.0093,4.0115,3.9877,3.9877,3.9877,0,0,3.8968,3.9023,3.9078,3.9197,3.9248,3.9339,3.9282,3.9381,3.9448,3.9427,3.9552,3.9589,3.9664,3.9805,3.9869,3.984,4.0082,4.0012,4.0021,4.0029,4.0106,4.0129,4.0149,3.9884,3.9883,3.9882,0,0,3.9119,3.917,3.9277,3.9329,3.9406,3.9432,3.9457,3.9532,3.9555,3.9681,3.9667,3.9748,3.9898,3.9952,3.9999,4.017,4.0155,4.0197,4.0278,4.0357,4.0375,4.0392,4.0452,4.0473,4.0211,4.0211,4.0212,0,3.9181,3.9318,3.9333,3.9433,3.9486,3.9471,3.9579,3.9629,3.973,3.9767,3.9733,3.9921,3.997,4.0122,4.0164,4.0203,4.0232,4.0187,4.0372,4.0389,4.0404,4.0461,4.0484,4.0216,4.0215,4.0215,4.0215,0,3.9389,3.9484,3.9561,3.9658,3.972,3.9824,3.9855,3.9915,3.9917,3.9946,4.0074,4.0133,4.0228,4.0265,4.0268,4.0417,4.0397,4.0367,4.0306,4.0431,4.0485,4.0507,4.0222,4.0221,4.0219,4.0218,0,0,3.9574,3.9679,3.9707,3.975,3.9835,3.9908,4.0011,4.0104,4.0155,4.0225,4.0311,4.0439,4.0412,4.0465,4.0474,4.0543,4.0674,4.0505,4.0507,4.0533,4.0841,4.0861,4.0886,4.0664,4.0669,4.0672,4.0834,0,3.9732,3.9913,3.993,4.0092,4.0179,4.0167,4.0256,4.0317,4.0347,4.0425,4.0458,4.0548,4.0506,4.0538,4.0606,4.0643,4.0735,4.0632,4.0744,4.0747,4.0724,4.0915,4.0937,4.1087,4.0855,4.0859,4.0861,0,3.994,4.0016,4.0187,4.0258,4.0296,4.0376,4.0461,4.0537,4.0606,4.0622,4.0682,4.0682,4.0787,4.0722,4.0867,4.0796,4.0843,4.0869,4.0875,4.0885,4.0811,4.0929,4.1135,4.1157,4.0895,4.0892,4.089,0,4.0056,4.0201,4.0322,4.036,4.0447,4.0503,4.0542,4.0607,4.0661,4.0736,4.0771,4.0858,4.0905,4.0972,4.0995,4.0946,4.1139,4.1076,4.1155,4.1154,4.1195,4.1192,4.1411,4.1228,4.1227,4.1227,4.1226,0,4.023,4.0335,4.0375,4.0449,4.0566,4.0584,4.0699,4.0735,4.0793,4.0873,4.0868,4.0944,4.097,4.105,4.1069,4.1185,4.1207,4.1223,4.1226,4.1222,4.122,4.1252,4.1242,4.1233,4.1231,4.123,4.1229,0,4.0379,4.041,4.0541,4.0612,4.0632,4.0715,4.0776,4.0847,4.0875,4.0977,4.1002,4.1047,4.1141,4.1171,4.1284,4.1297,4.1432,4.1427,4.1409,4.1409,4.1485,4.1477,4.1731,4.1765,4.1561,4.1563,4.1564,0,4.0487,4.0567,4.0647,4.07,4.0741,4.0827,4.0882,4.0904,4.0962,4.1046,4.1107,4.12,4.1275,4.1425,4.1468,4.1554,4.1551,4.1634,4.1563,4.1557,4.155,4.1544,4.1552,4.1646,4.1649,4.165,4.1652,0,4.0675,4.0686,4.0766,4.0852,4.0918,4.0986,4.1052,4.1096,4.1127,4.1192,4.1288,4.1346,4.1461,4.1553,4.1641,4.1681,4.1672,4.1674,4.1696,4.1692,4.1678,4.1685,4.1443,4.1667,4.1666,4.1665,4.1664,4.1663,4.0806,4.0876,4.0943,4.1031,4.1083,4.1145,4.1215,4.1252,4.1332,4.1427,4.1435,4.1538,4.1605,4.1722,4.1766,4.1847,4.1823,4.1856,4.1864,4.1871,4.1876,4.1666,4.1863,4.1863,4.1862,4.1862,4.1862,0,4.0992,4.1034,4.1116,4.1208,4.1278,4.1263,4.1335,4.1394,4.1485,4.1548,4.1622,4.1731,4.182,4.187,4.1959,4.2014,4.2011,4.2036,4.2031,4.204,4.1894,4.1865,4.2036,4.2036,4.2036,4.2036,4.2036,4.2036,4.1097,4.1214,4.1234,4.1377,4.1418,4.1519,4.1561,4.1617,4.1667,4.179,4.1864,4.1895,4.1953,4.2046,4.2126,4.2139,4.2171,4.2198,4.2207,4.2069,4.2051,4.2034,4.2006,4.2205,4.2205,4.2347,4.2349,4.235]},{"header":{"parameterUnit":"m.s-1","parameterCategory":1,"la1":30.2991,"la2":30.254,"lo1":-89.0895,"lo2":-89.0444,"dy":0.0017,"dx":0.0017,"nx":28,"ny":28,"refTime":"2025-07-20T21:00:00:Z","depth":0,"parameterNumber":3,"parameterNumberName":"V-component_of_WINDS"},"data":[0,0,0,0,0,0,0,0,0,0,0,0,0,0,0,0,0,0,0,0,0,0,0,0,0,0,0,0,0,0,0,0,0,0,0,0,0,0,0,0,0,0,0,0,0,0,0,0,0,0,0,0,0,0,0,0,0,0,1.6598,1.6598,0,1.6607,1.6607,1.6607,1.6564,1.6563,1.6562,1.6561,1.6573,1.6574,1.6575,0,0,0,0,0,0,0,0,0,0,0,0,0,1.6545,1.6546,1.6598,1.6598,1.6598,1.6607,1.6607,1.6607,1.6565,1.6563,1.6562,1.656,1.6572,1.6574,1.6576,0,0,0,0,0,0,0,0,0,0,0,0,0,1.6562,1.6546,1.6598,1.6578,1.6576,1.6607,1.6607,1.6607,1.6565,1.6563,1.6561,1.6559,1.6572,1.6574,1.6576,1.6627,0,0,1.6583,1.6584,0,0,0,0,0,0,0,0,1.6561,1.6564,1.6581,1.6579,1.6577,1.6582,1.6592,1.6614,1.6565,1.6569,1.6561,1.6559,1.6578,1.6579,1.6585,1.6627,1.6628,1.6583,1.6584,1.6585,1.6586,0,0,0,0,0,0,0,1.656,1.6564,1.6601,1.6581,1.6579,1.6569,1.6569,1.6596,1.6584,1.6569,1.6566,1.6567,1.6576,1.6583,1.6585,1.6628,1.6583,1.6585,1.6586,1.6587,1.6711,1.6713,0,0,0,0,0,0,1.6561,1.6563,1.6601,1.6602,1.6564,1.6571,1.6572,1.6583,1.6583,1.6582,1.6569,1.6565,1.658,1.6582,1.6585,1.6644,1.6585,1.6587,1.6588,1.6709,1.6712,1.6714,0,0,0,0,0,0,1.656,1.6565,1.6601,1.6581,1.6585,1.6574,1.6587,1.6584,1.659,1.6583,1.6581,1.6578,1.6579,1.6582,1.6616,1.6644,1.6588,1.659,1.6707,1.671,1.6713,1.6763,0,0,0,0,0,0,1.6559,1.6565,1.6584,1.6582,1.6586,1.6631,1.6589,1.6585,1.6594,1.6589,1.6591,1.659,1.6578,1.6613,1.6618,1.6646,1.6592,1.6704,1.6708,1.6712,1.6759,1.6768,1.6775,0,0,0,0,0,1.6557,1.6599,1.6585,1.659,1.661,1.6633,1.6636,1.662,1.6597,1.6616,1.6611,1.659,1.664,1.6617,1.6623,1.6651,1.6703,1.6707,1.6711,1.6756,1.6766,1.6775,0,0,0,0,0,0,1.6606,1.6598,1.6583,1.6625,1.663,1.6626,1.665,1.6632,1.6644,1.6639,1.662,1.662,1.6658,1.6658,1.6633,1.67,1.6667,1.6673,1.6699,1.6709,1.6716,1.6716,1.6594,0,0,0,0,0,1.6622,1.6641,1.6633,1.6671,1.6674,1.6661,1.6671,1.6658,1.6663,1.6665,1.6662,1.6668,1.6685,1.6697,1.6712,1.6758,1.6758,1.6781,1.6789,1.6795,1.6801,1.6824,1.6834,1.6728,1.6728,1.6728,0,0,1.6655,1.6652,1.6666,1.6681,1.6683,1.6703,1.6664,1.6687,1.6702,1.6669,1.67,1.6699,1.6704,1.6744,1.6762,1.6745,1.683,1.6801,1.6806,1.6808,1.683,1.684,1.6849,1.6731,1.6731,1.673,0,0,1.6724,1.6725,1.6756,1.6758,1.6761,1.6752,1.676,1.6758,1.6755,1.6786,1.6761,1.6779,1.6808,1.6813,1.6819,1.6888,1.6869,1.6893,1.6935,1.6958,1.6967,1.6974,1.6998,1.7008,1.6898,1.6899,1.6899,0,1.6765,1.6794,1.6774,1.6799,1.6806,1.6775,1.6806,1.681,1.6818,1.6824,1.6805,1.684,1.6842,1.6882,1.6898,1.6904,1.6912,1.6894,1.6967,1.6974,1.6981,1.7004,1.7013,1.6902,1.6901,1.6901,1.6901,0,1.6843,1.6864,1.6889,1.6896,1.6905,1.6934,1.6918,1.693,1.6916,1.6909,1.6941,1.6941,1.6955,1.6964,1.6951,1.7002,1.6991,1.697,1.6937,1.6994,1.7015,1.7024,1.6906,1.6905,1.6904,1.6903,0,0,1.6947,1.6941,1.695,1.6952,1.6952,1.6968,1.6994,1.7007,1.7017,1.7024,1.7045,1.707,1.7049,1.7056,1.7043,1.7064,1.7118,1.7039,1.7039,1.7054,1.7174,1.719,1.7201,1.7104,1.7106,1.7107,1.7173,0,1.7015,1.7058,1.7041,1.7086,1.7104,1.7074,1.7097,1.7099,1.7093,1.7108,1.7101,1.7119,1.709,1.7094,1.7113,1.7107,1.7142,1.7102,1.7125,1.7126,1.7125,1.7212,1.723,1.7293,1.7182,1.7183,1.7184,0,1.7101,1.7109,1.7156,1.7151,1.7158,1.7179,1.7188,1.7202,1.7204,1.7198,1.7205,1.7187,1.7212,1.7178,1.7212,1.7186,1.7194,1.7192,1.7194,1.7197,1.7159,1.7217,1.7312,1.7322,1.7197,1.7196,1.7195,0,1.7171,1.7194,1.7224,1.7227,1.7223,1.7238,1.7237,1.7236,1.7245,1.7253,1.7258,1.7269,1.7276,1.7285,1.7271,1.7247,1.7307,1.7272,1.7303,1.7304,1.7318,1.7318,1.7416,1.7323,1.7322,1.7322,1.7322,0,1.725,1.728,1.7256,1.7275,1.7307,1.7286,1.7319,1.7314,1.7314,1.7332,1.7306,1.7324,1.7303,1.7318,1.7307,1.7337,1.734,1.7336,1.7333,1.7339,1.7339,1.7344,1.734,1.7325,1.7324,1.7324,1.7323,0,1.7335,1.732,1.7351,1.7343,1.7342,1.7366,1.7359,1.7376,1.7367,1.739,1.7394,1.7381,1.7397,1.7383,1.7399,1.7392,1.7432,1.7422,1.7431,1.7428,1.746,1.7458,1.7566,1.7579,1.7477,1.7478,1.7479,0,1.7386,1.7408,1.7402,1.7411,1.7411,1.7427,1.7434,1.7414,1.7423,1.7426,1.7443,1.7457,1.7467,1.7494,1.7487,1.7499,1.7489,1.7526,1.7491,1.7496,1.749,1.7489,1.7491,1.7534,1.7535,1.7536,1.7537,0,1.7479,1.747,1.7481,1.749,1.7499,1.7505,1.751,1.7519,1.7498,1.7509,1.7525,1.7533,1.7548,1.7562,1.7571,1.7571,1.7551,1.7548,1.7556,1.7562,1.7567,1.7565,1.7451,1.7546,1.7545,1.7544,1.7544,1.7543,1.7549,1.7566,1.7564,1.7577,1.7578,1.7582,1.7597,1.7589,1.7602,1.7612,1.7599,1.7619,1.7619,1.7628,1.763,1.7645,1.7629,1.7641,1.7644,1.7647,1.7652,1.7563,1.7646,1.7646,1.7646,1.7646,1.7645,0,1.764,1.7637,1.7649,1.7655,1.7665,1.7643,1.7646,1.7657,1.7673,1.7675,1.7684,1.7702,1.7715,1.7707,1.7719,1.7732,1.7723,1.7736,1.7735,1.7735,1.7665,1.7657,1.7743,1.7743,1.7743,1.7743,1.7743,1.7743,1.7689,1.7718,1.7708,1.7736,1.7733,1.775,1.7754,1.7757,1.7758,1.7778,1.7788,1.7783,1.778,1.7791,1.7802,1.7799,1.7804,1.7821,1.7815,1.775,1.774,1.7731,1.7723,1.7822,1.7822,1.7884,1.7884,1.7885]}]]